Simultaneous Nadir Overpasses (SNOs) Predictions

Prediction of SNOs between AQUA and GOES-15 Satellite Orbit:

Table of predicted SNOs for the next 14.0 days since TLE Epoch: 12/16/2011
Index Date Time (AQUA) AQUA Lat,Lon GOES-15 Lat,Lon Distance(km) Time Diff (sec)
1 12/16/2011 22:52:53 -0.54,-139.39 0.04,-136.64 312.25 80
2 12/18/2011 22:40:44 0.39,-136.49 0.04,-138.06 179.49 80
3 12/19/2011 11:01:59 0.68,-141.64 -0.05,-138.27 383.47 80
4 12/21/2011 10:49:49 -0.22,-138.73 -0.03,-139.67 106.47 80
5 12/21/2011 23:11:14 -0.77,-143.94 0.04,-140.17 428.47 80
6 12/23/2011 22:59:04 0.17,-141.03 0.03,-141.57 61.91 80
7 12/24/2011 11:20:18 0.89,-146.19 -0.04,-141.80 499.29 80
8 12/26/2011 11:08:07 -0.03,-143.28 -0.03,-143.18 10.26 80
9 12/28/2011 10:55:56 -0.91,-140.35 -0.03,-144.57 478.62 80
10 12/28/2011 23:17:20 -0.05,-145.57 0.04,-145.06 57.62 80




NCC Satellite Simultaneous Nadir Overpasses (SNOs) Prediction Service
